User: anonymous   Login
Location: Caltech
(34.1382°N, 118.1253°W)
Time: 03:56:05
(UTC-08:00)
Language:

Cosmos 2333 Rocket - Orbit

View from above orbital plane
View from above orbital plane
View from above satellite
View from above satellite

Ground track
Ground track

The orbit data is extracted from the following two-line orbital elements,

1 24298U 96051B   17019.15132665  .00000054  00000-0  55656-4 0  9993
2 24298  70.8456  16.1751 0012700  38.5117 321.6907 14.12472282 50773
Epoch (UTC): 19 January 2017 03:37:54
Eccentricity: 0.0012700
inclination: 70.8456°
perigee height: 842 km
apogee height: 860 km
right ascension of ascending node: 16.1751°
argument of perigee: 38.5117°
revolutions per day: 14.12472282
mean anomaly at epoch: 321.6907°
orbit number at epoch: 5077

The dashed part of the orbit path shows where the satellite is in the earth's shadow,  

DLR